This is the latest recevied weather packets stored in our database for station/object EA1AHA-13. If no packets are shown the sender has not sent any weather packets the latest 10 day(s).
| Time | Temp. | Humidity | Pressure | Rain* | Wind** | Luminosity | Snow |
|---|---|---|---|---|---|---|---|
| 1777625790 | 18.33° C | 73% | 1017.7 hPa | 0 mm | - | - | - |
| 1777625165 | 18.33° C | 75% | 1017.8 hPa | 0 mm | - | - | - |
| 1777624590 | 17.78° C | 74% | 1017.7 hPa | 0 mm | - | - | - |
| 1777623966 | 17.78° C | 73% | 1017.7 hPa | 0 mm | - | - | - |
| 1777623389 | 17.78° C | 79% | 1017.8 hPa | 0 mm | - | - | - |
| 1777622765 | 16.67° C | 84% | 1017.6 hPa | 0 mm | - | - | - |
| 1777622190 | 16.11° C | 85% | 1017.7 hPa | 0 mm | - | - | - |
| 1777620990 | 15.56° C | 87% | 1017.7 hPa | 0 mm | - | - | - |
| 1777620413 | 15.56° C | 87% | 1017.5 hPa | 0 mm | - | - | - |
| 1777619790 | 15° C | 89% | 1017.8 hPa | 0 mm | - | - | - |
| 1777619165 | 15° C | 89% | 1017.6 hPa | 0 mm | - | - | - |
| 1777618590 | 14.44° C | 91% | 1017.6 hPa | 0 mm | - | - | - |
| 1777617966 | 13.89° C | 92% | 1017.4 hPa | 0 mm | - | - | - |
| 1777617389 | 13.89° C | 93% | 1017.6 hPa | 0 mm | - | - | - |
| 1777616766 | 13.33° C | 94% | 1017.5 hPa | 0 mm | - | - | - |
| 1777616190 | 12.78° C | 95% | 1017.7 hPa | 0 mm | - | - | - |
| 1777615566 | 12.78° C | 95% | 1017.5 hPa | 0 mm | - | - | - |
| 1777614990 | 12.78° C | 96% | 1017.6 hPa | 0 mm | - | - | - |
| 1777614414 | 12.78° C | 95% | 1017.8 hPa | 0 mm | - | - | - |
| 1777613789 | 12.78° C | 95% | 1017.6 hPa | 0 mm | - | - | - |
| 1777613165 | 12.78° C | 95% | 1017.5 hPa | 0 mm | - | - | - |
| 1777612590 | 12.78° C | 95% | 1017.3 hPa | 0 mm | - | - | - |
| 1777611965 | 12.78° C | 95% | 1017.3 hPa | 0 mm | - | - | - |
| 1777611390 | 13.33° C | 94% | 1017.5 hPa | 0 mm | - | - | - |
| 1777610765 | 13.33° C | 94% | 1017.6 hPa | 0 mm | - | - | - |
* Rain latest hour (hover to see other rain measurements)
** Current wind speed in m/s (hover to see current wind gust speed)